Alturas, CA

4:29 PM PST on February 23, 2017 (GMT -0800)
Alturas Municipal

Weather History for KAAT - August, 2013

Change the Weather History Date:

Thursday, August 8, 2013

  Actual Average Record
Temperature  
Mean Temperature 55 °F 66 °F  
Max Temperature 64 °F 89 °F 105 °F (1908)
Min Temperature 46 °F 44 °F 30 °F (2002)
Degree Days  
Heating Degree Days 10 1  
Month to date heating degree days 21 8  
Since 1 June heating degree days 181 229  
Since 1 July heating degree days 25 49  
Cooling Degree Days 0 3  
Month to date cooling degree days 8 24  
Year to date cooling degree days 224 119  
Since 1 June cooling degree days 224 119  
Growing Degree Days 5 (Base 50)    
Moisture  
Dew Point 43 °F    
Average Humidity 66    
Maximum Humidity 93    
Minimum Humidity 39    
Precipitation  
Precipitation 0.04 in 0.02 in 0.22 in (1961)
Month to date precipitation 0.04 0.08  
Year to date precipitation 4.47 8.86  
Sea Level Pressure  
Sea Level Pressure 30.01 in    
Wind  
Wind Speed 5 mph (WSW)    
Max Wind Speed 18 mph    
Max Gust Speed 24 mph    
Visibility 10 miles    
Events Rain , Thunderstorm    
T = Trace of Precipitation, MM = Missing Value Source: NWS Daily Summary

Daily Weather History Graph

Daily Weather History Graph

Search for Another Location

Airport or City:

Trip Planner

Search our weather history database for the weather conditions in past years. The results will help you decide how hot, cold, wet, or windy it might be!

Date:

Astronomy

Aug. 08, 2013 Rise Set
Actual Time 6:04 AM PDT 8:10 PM PDT
Civil Twilight 5:33 AM PDT 8:40 PM PDT
Nautical Twilight 4:56 AM PDT 9:18 PM PDT
Astronomical Twilight 4:15 AM PDT 9:58 PM PDT
Moon 7:58 AM PDT (8/8) 8:49 PM PDT (8/8)
Length of Visible Light 15h 07m
Length of Day
14h 06m
Waxing Crescent, 3% of the Moon is Illuminated
Aug 8
Waxing Crescent
Aug 14
First Quarter
Aug 20
Full
Aug 28
Last Quarter
Sep 5
New

Hourly Weather History & Observations

Time (PDT) Temp. Windchill Dew Point Humidity Pressure Visibility Wind Dir Wind Speed Gust Speed Precip Events Conditions
12:55 AM 55.9 °F - 32.0 °F 40% 30.00 in 10.0 mi SW 3.5 mph - N/A   Clear
1:55 AM 53.1 °F - 34.0 °F 48% 30.00 in 10.0 mi East 9.2 mph - N/A   Clear
2:55 AM 46.0 °F 44.8 °F 34.0 °F 63% 30.00 in 10.0 mi WSW 3.5 mph - N/A   Clear
3:55 AM 48.9 °F - 35.1 °F 59% 30.00 in 10.0 mi ESE 4.6 mph - N/A   Clear
4:55 AM 46.9 °F - 34.0 °F 61% 30.00 in 10.0 mi Calm Calm - N/A   Clear
5:55 AM 51.1 °F - 34.0 °F 52% 29.97 in 10.0 mi NNE 9.2 mph - N/A   Overcast
6:55 AM 57.0 °F - 34.0 °F 42% 29.97 in 10.0 mi Calm Calm - N/A   Overcast
7:55 AM 61.0 °F - 35.1 °F 38% 29.98 in 10.0 mi WSW 15.0 mph 19.6 mph N/A   Mostly Cloudy
8:55 AM 59.0 °F - 35.1 °F 41% 29.98 in 10.0 mi SW 10.4 mph - N/A   Overcast
9:28 AM 57.2 °F - 37.4 °F 48% 30.07 in 10.0 mi West 6.9 mph - 0.00 in Rain , Thunderstorm Light Thunderstorms and Rain
9:43 AM 59.0 °F - 37.4 °F 45% 30.06 in 10.0 mi West 8.1 mph - 0.00 in   Mostly Cloudy
9:55 AM 59.0 °F - 37.0 °F 44% 29.98 in 10.0 mi SW 6.9 mph - 0.00 in   Partly Cloudy
10:55 AM 60.1 °F - 39.0 °F 46% 29.98 in 10.0 mi Variable 3.5 mph - 0.00 in   Overcast
11:55 AM 60.1 °F - 39.0 °F 46% 30.02 in 10.0 mi SSE 4.6 mph - 0.00 in   Overcast
12:55 PM 57.0 °F - 46.0 °F 67% 30.01 in 10.0 mi Calm Calm - 0.01 in Rain Light Rain
1:55 PM 59.0 °F - 51.1 °F 75% 30.04 in 10.0 mi SSW 8.1 mph - 0.03 in   Mostly Cloudy
2:55 PM 63.0 °F - 48.9 °F 60% 30.02 in 10.0 mi SSW 4.6 mph - N/A   Mostly Cloudy
3:14 PM 64.4 °F - 46.4 °F 52% 30.09 in 10.0 mi SSW 6.9 mph - N/A Thunderstorm Mostly Cloudy
3:29 PM 62.6 °F - 46.4 °F 55% 30.08 in 10.0 mi West 8.1 mph - N/A   Mostly Cloudy
3:50 PM 64.4 °F - 48.2 °F 56% 30.08 in 10.0 mi WNW 4.6 mph - 0.00 in Thunderstorm Mostly Cloudy
3:55 PM 64.0 °F - 48.9 °F 58% 30.01 in 10.0 mi NW 4.6 mph - 0.00 in Thunderstorm Mostly Cloudy
4:05 PM 64.4 °F - 48.2 °F 56% 30.07 in 10.0 mi NW 5.8 mph - N/A   Mostly Cloudy
4:55 PM 60.1 °F - 51.1 °F 72% 30.02 in 7.0 mi NW 8.1 mph - 0.00 in Rain Light Rain
5:55 PM 57.9 °F - 52.0 °F 81% 30.02 in 10.0 mi West 4.6 mph - 0.00 in Rain Light Rain
6:55 PM 63.0 °F - 50.0 °F 63% 29.96 in 10.0 mi ESE 4.6 mph - 0.00 in   Scattered Clouds
7:55 PM 60.1 °F - 51.1 °F 72% 29.97 in 10.0 mi SSE 3.5 mph - N/A   Clear
8:55 PM 57.0 °F - 50.0 °F 77% 29.96 in 10.0 mi Calm Calm - N/A   Clear
9:55 PM 55.0 °F - 48.9 °F 80% 29.97 in 10.0 mi West 5.8 mph - N/A   Clear
10:55 PM 51.1 °F - 48.0 °F 89% 29.99 in 10.0 mi Calm Calm - N/A   Clear
11:55 PM 50.0 °F - 48.0 °F 93% 30.00 in 10.0 mi Calm Calm - N/A   Clear